Location: Bennemühlen
(52.5740°N, 9.7135°E)
Time: 16:23:15
(UTC+00:00)

SR - Pass Details

Date: 19 February 2026
Orbit: 572 x 848 km, 66.7° (Epoch: 8 March)

Event Time Altitude Azimuth Distance (km) Brightness Sun altitude
Exits shadow 03:44:08 45° 141° (SE) 814 ? -25.6°
Maximum altitude 03:44:35 47° 121° (ESE) 794 ? -25.6°
Drops below altitude 10° 03:48:54 10° 47° (NE) 2,009 ? -24.9°
Sets 03:51:18 0° 42° (NE) 2,963 ? -24.6°
